When you browse on this site, cookies collect data to enhance your experience and personalize the content and advertising you see.
Visit our Privacy Policy to learn more. By continuing to use the site, you agree to this use of cookies and data.
  • In United Kingdom
  • List of Countries
  • For 7 days
  • Water Temperature
  • Weather Map
  • Weather Widgets
  • user-avatar
    Login

    Hourly Weather Mazatenango

    Today, 3 June, Wednesday

    Time Temperature Precipitation Wind Pressure Humidity
    00:00 +23°C° 1 mm 0 mps 725 mmHg 97%
    01:00 +23°C° 0.8 mm 0 mps 725 mmHg 97%
    02:00 +24°C° 0.8 mm 1 mps 724 mmHg 97%
    03:00 +24°C° 0.8 mm 1 mps 724 mmHg 97%
    04:00 +24°C° 1.8 mm 1 mps 724 mmHg 96%
    05:00 +24°C° 1.8 mm 1 mps 724 mmHg 96%
    06:00 +24°C° 1.8 mm 1 mps 724 mmHg 96%
    07:00 +25°C° 0.5 mm 1 mps 724 mmHg 95%
    08:00 +23°C° 0.5 mm 0 mps 724 mmHg 94%
    09:00 +24°C° 0.5 mm 0 mps 725 mmHg 92%
    10:00 +27°C° 0.6 mm 1 mps 724 mmHg 91%
    11:00 +27°C° 0.6 mm 1 mps 724 mmHg 89%
    12:00 +28°C° 0.6 mm 2 mps 724 mmHg 88%
    13:00 +27°C° 2 mm 1 mps 723 mmHg 90%
    14:00 +27°C° 2 mm 1 mps 723 mmHg 93%
    15:00 +26°C° 2 mm 1 mps 722 mmHg 95%
    16:00 +26°C° 0.8 mm 1 mps 722 mmHg 95%
    17:00 +26°C° 0.8 mm 1 mps 722 mmHg 95%
    18:00 +23°C° 0.8 mm 0 mps 723 mmHg 95%
    19:00 +25°C° 0.8 mm 1 mps 723 mmHg 94%
    20:00 +25°C° 0.8 mm 1 mps 723 mmHg 93%
    21:00 +25°C° 0.8 mm 1 mps 724 mmHg 92%
    22:00 +24°C° 0.2 mm 1 mps 724 mmHg 92%
    23:00 +24°C° 0.2 mm 1 mps 724 mmHg 92%

    Tomorrow, 4 June, Thursday

    Time Temperature Precipitation Wind Pressure Humidity
    00:00 +24°C° 0.2 mm 1 mps 723 mmHg 91%
    01:00 +24°C° 0.6 mm 1 mps 723 mmHg 92%
    02:00 +23°C° 0.6 mm 2 mps 723 mmHg 93%
    03:00 +23°C° 0.6 mm 2 mps 722 mmHg 93%
    04:00 +23°C° 0.3 mm 1 mps 722 mmHg 93%
    05:00 +24°C° 0.3 mm 1 mps 722 mmHg 92%
    06:00 +24°C° 0.3 mm 1 mps 722 mmHg 92%
    07:00 +24°C° 0.1 mm 1 mps 723 mmHg 92%
    08:00 +25°C° 0.1 mm 1 mps 723 mmHg 91%
    09:00 +25°C° 0.1 mm 1 mps 724 mmHg 91%
    10:00 +25°C° 0.7 mm 1 mps 724 mmHg 92%
    11:00 +25°C° 0.7 mm 2 mps 723 mmHg 93%
    12:00 +25°C° 0.7 mm 2 mps 723 mmHg 95%
    13:00 +25°C° 0.5 mm 2 mps 723 mmHg 94%
    14:00 +25°C° 0.5 mm 2 mps 722 mmHg 93%
    15:00 +25°C° 0.5 mm 2 mps 722 mmHg 93%
    16:00 +25°C° 0.1 mm 1 mps 722 mmHg 94%
    17:00 +25°C° 0.1 mm 1 mps 722 mmHg 95%
    18:00 +22°C° 0.1 mm 0 mps 722 mmHg 96%
    19:00 +22°C° 0.2 mm 0 mps 723 mmHg 96%
    20:00 +22°C° 0.2 mm 0 mps 723 mmHg 96%
    21:00 +22°C° 0.2 mm 0 mps 723 mmHg 96%
    22:00 +24°C° 1.2 mm 1 mps 723 mmHg 97%
    23:00 +24°C° 1.2 mm 1 mps 723 mmHg 97%

    Day after tomorrow, 5 June, Friday

    Time Temperature Precipitation Wind Pressure Humidity
    00:00 +24°C° 1.2 mm 1 mps 723 mmHg 98%
    01:00 +24°C° 6.3 mm 1 mps 723 mmHg 98%
    02:00 +24°C° 6.3 mm 1 mps 723 mmHg 98%
    03:00 +24°C° 6.3 mm 1 mps 723 mmHg 98%
    04:00 +24°C° 2.4 mm 1 mps 723 mmHg 98%
    05:00 +23°C° 2.4 mm 1 mps 723 mmHg 98%
    06:00 +23°C° 2.4 mm 1 mps 723 mmHg 98%
    07:00 +24°C° 4.3 mm 1 mps 723 mmHg 98%
    08:00 +24°C° 4.3 mm 1 mps 724 mmHg 98%
    09:00 +24°C° 4.3 mm 1 mps 724 mmHg 99%
    10:00 +24°C° 2 mm 1 mps 724 mmHg 98%
    11:00 +24°C° 2 mm 1 mps 724 mmHg 98%
    12:00 +25°C° 2 mm 1 mps 724 mmHg 97%
    13:00 +24°C° 3.1 mm 1 mps 723 mmHg 97%
    14:00 +24°C° 3.1 mm 1 mps 723 mmHg 97%
    15:00 +24°C° 3.1 mm 1 mps 722 mmHg 97%
    16:00 +24°C° 0.7 mm 1 mps 723 mmHg 97%
    17:00 +24°C° 0.7 mm 1 mps 723 mmHg 97%
    18:00 +24°C° 0.7 mm 1 mps 723 mmHg 96%
    19:00 +24°C° 4.4 mm 1 mps 723 mmHg 97%
    20:00 +24°C° 4.4 mm 1 mps 724 mmHg 98%
    21:00 +24°C° 4.4 mm 1 mps 724 mmHg 98%
    22:00 +24°C° 5.8 mm 1 mps 724 mmHg 98%
    23:00 +24°C° 5.8 mm 1 mps 724 mmHg 98%

    6 June, Saturday

    Time Temperature Precipitation Wind Pressure Humidity
    00:00 +24°C° 5.8 mm 1 mps 724 mmHg 98%
    01:00 +24°C° 17.9 mm 1 mps 724 mmHg 98%
    02:00 +24°C° 17.9 mm 1 mps 723 mmHg 98%
    03:00 +24°C° 17.9 mm 2 mps 723 mmHg 98%
    04:00 +24°C° 13.6 mm 1 mps 723 mmHg 98%
    05:00 +24°C° 13.6 mm 1 mps 724 mmHg 98%
    06:00 +24°C° 13.6 mm 1 mps 724 mmHg 98%
    07:00 +24°C° 2.6 mm 1 mps 725 mmHg 98%
    08:00 +24°C° 2.6 mm 1 mps 725 mmHg 97%
    09:00 +25°C° 2.6 mm 1 mps 726 mmHg 97%
    10:00 +25°C° 0.3 mm 1 mps 725 mmHg 95%
    11:00 +26°C° 0.3 mm 1 mps 725 mmHg 93%
    12:00 +26°C° 0.3 mm 1 mps 725 mmHg 91%
    13:00 +26°C° 0.5 mm 1 mps 725 mmHg 92%
    14:00 +26°C° 0.5 mm 1 mps 724 mmHg 94%
    15:00 +26°C° 0.5 mm 1 mps 724 mmHg 95%
    16:00 +25°C° 0.7 mm 1 mps 724 mmHg 96%
    17:00 +23°C° 0.7 mm 0 mps 724 mmHg 97%
    18:00 +23°C° 0.7 mm 0 mps 724 mmHg 98%
    19:00 +22°C° 1.9 mm 0 mps 725 mmHg 97%
    20:00 +24°C° 1.9 mm 1 mps 725 mmHg 97%
    21:00 +24°C° 1.9 mm 1 mps 726 mmHg 96%
    22:00 +24°C° 1.4 mm 1 mps 726 mmHg 96%
    23:00 +24°C° 1.4 mm 1 mps 726 mmHg 96%

    7 June, Sunday

    Time Temperature Precipitation Wind Pressure Humidity
    00:00 +24°C° 1.4 mm 1 mps 726 mmHg 96%
    01:00 +24°C° 0.7 mm 1 mps 725 mmHg 95%
    02:00 +24°C° 0.7 mm 1 mps 725 mmHg 94%
    03:00 +22°C° 0.7 mm 0 mps 724 mmHg 94%
    04:00 +24°C° 0.2 mm 1 mps 725 mmHg 94%
    05:00 +24°C° 0.2 mm 1 mps 725 mmHg 94%
    06:00 +24°C° 0.2 mm 1 mps 725 mmHg 93%
    07:00 +25°C° 0.1 mm 1 mps 725 mmHg 90%
    08:00 +27°C° 0.1 mm 2 mps 725 mmHg 86%
    09:00 +28°C° 0.1 mm 2 mps 726 mmHg 82%
    10:00 +28°C° 1.2 mm 2 mps 726 mmHg 84%
    11:00 +28°C° 1.2 mm 2 mps 725 mmHg 86%
    12:00 +28°C° 1.2 mm 2 mps 725 mmHg 88%
    13:00 +28°C° 1.9 mm 2 mps 725 mmHg 89%
    14:00 +28°C° 1.9 mm 2 mps 724 mmHg 90%
    15:00 +27°C° 1.9 mm 1 mps 724 mmHg 91%
    16:00 +27°C° 1.7 mm 1 mps 724 mmHg 92%
    17:00 +26°C° 1.7 mm 1 mps 724 mmHg 94%
    18:00 +25°C° 1.7 mm 1 mps 724 mmHg 96%
    19:00 +25°C° 1.4 mm 1 mps 725 mmHg 96%
    20:00 +25°C° 1.4 mm 1 mps 726 mmHg 97%
    21:00 +25°C° 1.4 mm 1 mps 726 mmHg 97%
    22:00 +25°C° 1.6 mm 1 mps 726 mmHg 97%
    23:00 +25°C° 1.6 mm 1 mps 726 mmHg 97%

    8 June, Monday

    Time Temperature Precipitation Wind Pressure Humidity
    00:00 +25°C° 1.6 mm 1 mps 726 mmHg 98%
    01:00 +24°C° 1.2 mm 1 mps 726 mmHg 97%
    02:00 +24°C° 1.2 mm 1 mps 726 mmHg 96%
    03:00 +24°C° 1.2 mm 1 mps 725 mmHg 96%
    04:00 +24°C° 1.5 mm 1 mps 726 mmHg 96%
    05:00 +24°C° 1.5 mm 1 mps 726 mmHg 97%
    06:00 +24°C° 1.5 mm 2 mps 726 mmHg 97%
    07:00 +24°C° 1 mm 1 mps 726 mmHg 96%
    08:00 +24°C° 1 mm 1 mps 727 mmHg 95%
    09:00 +24°C° 1 mm 1 mps 727 mmHg 94%
    10:00 +24°C° 0.4 mm 1 mps 727 mmHg 93%
    11:00 +25°C° 0.4 mm 1 mps 727 mmHg 92%
    12:00 +25°C° 0.4 mm 1 mps 727 mmHg 90%
    13:00 +26°C° 0 mm 1 mps 726 mmHg 87%
    14:00 +27°C° 0 mm 1 mps 726 mmHg 83%
    15:00 +28°C° 0 mm 1 mps 725 mmHg 79%
    16:00 +27°C° 0 mm 1 mps 725 mmHg 82%
    17:00 +27°C° 0 mm 1 mps 725 mmHg 86%
    18:00 +26°C° 0 mm 1 mps 725 mmHg 90%
    19:00 +26°C° 0 mm 1 mps 726 mmHg 89%
    20:00 +25°C° 0 mm 1 mps 726 mmHg 89%
    21:00 +24°C° 0 mm 1 mps 727 mmHg 88%
    22:00 +24°C° 0 mm 1 mps 727 mmHg 87%
    23:00 +24°C° 0 mm 1 mps 727 mmHg 85%
    Show more